www.pogodaiklimat.ru

Погода и климат >> Архив погоды >> Норвегия >> Берген


ПОГОДА в Бергене

  • Прогноз погоды в Бергене
  • Монитор погоды в Бергене

АРХИВ ПОГОДЫ в Бергене

Время (UTC), дата Ветер
(напр.,м/с)
 
Видим.   Явления Облачность Т
(С)
Тd
(С)
f
(%)
Тe
(С)
Тes
(С)
Комфортность P
(гПа)
Po
(гПа)
Тmin
(С)
Tmax
(С)
R
(мм)
R24
(мм)
S
(см)
22 8.06 С 1-1
{3}
н/о н/о +12.7 +10.0 84 +13 +13 1005.9 1001.6
23 8.06 Ю 3-4
{4}
н/о н/о +13.1 +10.1 82 +12 +12 1005.9 1001.6
00 9.06 ЮВ 2-4
{6}
н/о н/о +12.5 +9.8 84 +12 +12 1005.9 1001.6 1
01 9.06 Ю 1-2
{4}
н/о н/о +12.2 +9.5 84 +12 +12 1005.7 1001.4 0.2
02 9.06 СЗ 1-2
{4}
н/о н/о +12.1 +10.5 90 +12 +12 1005.6 1001.3 0.4
03 9.06 ЮВ 1-2
{3}
н/о н/о +11.8 +10.3 91 +12 +12 1005.7 1001.4 0.4
04 9.06 Ю 1-2
{2}
н/о н/о +11.8 +10.4 91 +12 +12 1005.9 1001.5 0.6
05 9.06 Ю 2-4
{4}
н/о н/о +11.8 +10.4 91 +11 +11 1006.0 1001.7 0.9
06 9.06 Ю 3
{6}
8000 м слаб. морось {дождь} 10/10 300 м
[Frnb]
+12.2 +10.6 90 +11 +11 1006.4 1002.1 +11.7 +14.4 4
07 9.06 ЮВ 4-5
{6}
н/о н/о +12.5 +10.6 88 +11 +11 1006.8 1002.5
08 9.06 Ю 6-12
{12}
н/о н/о +12.1 +10.3 89 +9 +9 1007.6 1003.3 2
09 9.06 Ю 8-10
{12}
8000 м в посл. час морось {ливн. осадки, дождь} 10/10 100 м
[Frnb]
+11.9 +10.3 90 +9 +9 1008.5 1004.2
10 9.06 Ю 6-9
{12}
н/о н/о +11.7 +10.6 93 +9 +9 1009.5 1005.2 0.1
11 9.06 Ю 4-7
{10}
н/о н/о +11.7 +10.7 94 +9 +9 1010.4 1006.1
12 9.06 Ю 3-6
{12}
8000 м слаб. дождь 10/8 200 м
[Frnb As op]
+11.8 +10.6 92 +10 +10 1011.0 1006.7 0.1
13 9.06 Ю 4-6
{6}
н/о н/о +12.0 +10.8 92 +10 +10 1011.5 1007.2 0.2
14 9.06 Ю 5-7
{8}
н/о н/о +12.0 +10.9 93 +9 +9 1012.2 1007.9
15 9.06 Ю 4-5
{7}
15 км слаб. дождь 10/6 200 м
[Frnb As op]
+11.8 +10.7 93 +10 +10 1012.6 1008.3
16 9.06 Ю 4-7
{7}
н/о н/о +11.9 +10.8 93 +10 +10 1012.9 1008.6 2
17 9.06 Ю 6-8
{10}
н/о н/о +11.3 +10.3 94 +8 +8 1013.6 1009.3 2
18 9.06 Ю 6-11
{11}
7000 м слаб. дождь 10/10 100 м
[Frnb]
+11.0 +9.8 92 +8 +8 1014.1 1009.8 +11.0 +12.6 7
19 9.06 Ю 7-11
{11}
н/о н/о +10.9 +9.7 92 +7 +7 1014.3 1010.0 0.3
20 9.06 Ю 4-8
{10}
н/о н/о +10.9 +9.8 93 +8 +8 1014.7 1010.4 2
21 9.06 ЮЗ 2-4
{8}
10 км дождь 10/10 100 м
[Frnb]
+9.3 +8.0 92 +8 +8 1016.8 1012.4 3
22 9.06 ЮЗ 2-5
{8}
н/о н/о +9.0 +7.4 90 +7 +7 1017.8 1013.4 2
23 9.06 Ю 2-3
{4}
н/о н/о +8.9 +7.2 89 +7 +7 1018.4 1014.0 1
00 10.06 Ю 2-3
{11}
н/о н/о +9.2 +7.9 92 +7 +7 1018.4 1014.0 0.5
01 10.06 ЮВ 3-4
{5}
н/о н/о +8.8 +7.6 92 +6 +6 1018.5 1014.1 0.3
02 10.06 ЮВ 3-4
{5}
н/о н/о +8.5 +7.5 93 +6 +6 1018.4 1014.0 0.8
03 10.06 ЮВ 4-5
{5}
н/о н/о +8.6 +7.7 94 +5 +5 1018.6 1014.2 1
04 10.06 ЮВ 5-8
{8}
н/о н/о +9.3 +8.0 92 +6 +6 1018.8 1014.4 2
05 10.06 ЮВ 2-3
{6}
н/о н/о +9.4 +8.2 92 +8 +8 1019.0 1014.6 0.3
06 10.06 ЮВ 4
{8}
15 км слаб. ливневой дождь 10/6 200 м
[Cu Sc Ac As]
+9.9 +8.5 91 +7 +7 1019.5 1015.1 +8.5 +11.1 14
07 10.06 ЮВ 3-4
{5}
н/о н/о +9.6 +7.8 89 +7 +7 1019.6 1015.2
08 10.06 Ю 4-5
{6}
н/о н/о +10.8 +8.5 86 +8 +8 1020.0 1015.6
09 10.06 Ю 4-6
{7}
28 км {ливн. осадки} 8/8 200 м
[Cu Sc]
+11.7 +8.2 79 +10 +11 1020.3 1016.0
10 10.06 Ю 3-5
{6}
н/о н/о +12.1 +8.5 79 +11 +11 1020.3 1016.0
11 10.06 Ю 3-5
{6}
н/о н/о +11.7 +8.7 82 +10 +10 1020.5 1016.2
12 10.06 ЮВ 3-5
{7}
18 км в посл. час ливневой дождь 10/10 200 м
[Cu Sc]
+11.8 +9.1 84 +10 +10 1020.5 1016.2 0.1
13 10.06 Ю 5-7
{8}
н/о н/о +11.5 +8.2 80 +9 +9 1020.7 1016.4
14 10.06 Ю 6-8
{8}
н/о н/о +12.0 +9.0 82 +9 +9 1020.8 1016.5
15 10.06 ЮВ 3-7
{8}
30 км {ливн. осадки} 9/9 300 м
[Cu med, cong]
+12.9 +7.7 71 +12 +12 1020.6 1016.3
16 10.06 Ю 3-5
{6}
н/о н/о +13.1 +8.4 73 +12 +12 1020.7 1016.4
17 10.06 Ю 3-4
{5}
н/о н/о +12.7 +8.2 74 +11 +11 1020.8 1016.5
18 10.06 Ю 4-5
{8}
40 км {ливн. осадки} 8/8 600 м
[Cu med, cong]
+13.1 +7.8 70 +11 +12 1020.8 1016.5 +9.5 +13.6 0.1
19 10.06 ЮЗ 2-3
{5}
н/о н/о +12.4 +7.6 73 +12 +12 1020.8 1016.5
20 10.06 Ю 1-2
{3}
н/о н/о +11.5 +8.0 79 +11 +11 1021.1 1016.8
21 10.06 СЗ 2-3
{3}
25 км 1/1 300 м
[Sc Ac As]
+10.7 +8.5 86 +9 +9 1021.7 1017.3
22 10.06 СЗ 3-4
{4}
н/о н/о +10.8 +8.6 86 +9 +9 1021.9 1017.5
23 10.06 СЗ 2-3
{4}
н/о н/о +10.6 +8.5 87 +9 +9 1021.9 1017.5
00 11.06 З 1-3
{5}
н/о н/о +10.6 +8.6 87 +10 +10 1021.6 1017.2
01 11.06 ЮВ 1-2
{3}
н/о н/о +9.1 +7.5 90 +8 +8 1021.4 1017.0
02 11.06 ЮВ 1-2
{2}
н/о н/о +8.2 +6.9 92 +7 +7 1021.1 1016.7
03 11.06 ЮВ 1-2
{2}
н/о н/о +7.8 +6.6 92 +7 +7 1021.1 1016.7
04 11.06 ЮВ 1-2
{2}
н/о н/о +7.9 +6.9 93 +7 +7 1021.4 1017.0
05 11.06 В 1-1
{2}
н/о н/о +8.5 +7.3 92 +8 +8 1021.3 1016.9 0.1
06 11.06 В 2
{3}
30 км 1/1 200 м
[Cu Sc Ac lent Ci fib]
+10.9 +8.7 86 +10 +13 1021.4 1017.0 +7.5 +13.1 0.1
07 11.06 З 2-4
{4}
н/о н/о +12.9 +8.0 72 +12 +12 1021.1 1016.8
08 11.06 СЗ 2-4
{4}
н/о н/о +15.1 +9.0 67 +15 +15 1021.1 1016.8
09 11.06 СЗ 2-4
{5}
40 км 1/0
[Ci fib]
+17.1 +9.5 61 +17 +28 1021.1 1016.8
10 11.06 СЗ 3-5
{5}
н/о н/о +18.1 +9.0 55 +18 +18 1020.7 1016.5
11 11.06 СЗ 4-5
{5}
н/о н/о +20.0 +7.9 46 +21 +21 комфорт 1020.3 1016.1
12 11.06 СЗ 5-6
{6}
40 км 1/1 600 м
[Cu hum Ci fib]
+21.2 +8.5 44 +22 +29 комфорт 1019.9 1015.7
13 11.06 СЗ 5-8
{8}
н/о н/о +22.1 +6.4 36 +23 +23 комфорт 1019.4 1015.2
14 11.06 СЗ 5-8
{8}
н/о н/о +22.7 +7.6 38 +24 +24 комфорт 1019.3 1015.1
15 11.06 СЗ 5-9
{9}
40 км 3/1 600 м
[Cu med, cong Cs]
+22.8 +8.1 39 +24 +28 комфорт 1019.3 1015.1
16 11.06 СЗ 5-8
{9}
н/о н/о +22.5 +8.8 42 +24 +24 комфорт 1019.2 1015.0
17 11.06 СЗ 4-7
{8}
н/о н/о +22.1 +9.0 43 +23 +23 комфорт 1018.9 1014.7
18 11.06 СЗ 5-7
{9}
40 км 8/1 600 м
[Cu hum Cs]
+21.1 +8.2 43 +22 +23 комфорт 1018.6 1014.4 +10.9 +23.1
19 11.06 З 2-4
{7}
н/о н/о +19.7 +8.9 50 +21 +21 комфорт 1018.6 1014.4
20 11.06 В 1-3
{4}
н/о н/о +19.2 +9.1 52 +21 +21 комфорт 1018.7 1014.5
21 11.06 ЮВ 4-7
{9}
50 км 6/1 600 м
[Cu hum Ac As Ci fib]
+20.3 +5.6 38 +21 +21 комфорт 1019.0 1014.8
22 11.06 В 3-5
{7}
н/о н/о +19.5 +4.7 38 +20 +20 1019.0 1014.8
23 11.06 В 3-8
{8}
н/о н/о +19.4 +5.0 39 +20 +20 1019.0 1014.8
00 12.06 В 5-8
{10}
н/о н/о +19.6 +5.4 39 +20 +20 1019.0 1014.8
01 12.06 В 8-11
{12}
н/о н/о +19.1 +5.5 41 +19 +19 1019.0 1014.8
02 12.06 В 6-12
{16}
н/о н/о +18.1 +5.6 44 +18 +18 1018.5 1014.3
03 12.06 В 2-8
{13}
н/о н/о +17.8 +4.6 42 +18 +18 1018.9 1014.7
04 12.06 В 8-13
{13}
н/о н/о +17.3 +4.7 43 +16 +16 1018.3 1014.1
05 12.06 В 4-7
{12}
н/о н/о +17.3 +4.9 44 +17 +17 1018.7 1014.4
06 12.06 СВ 7
{16}
60 км 9/0
[Ac As Ci fib]
+17.5 +5.4 45 +17 +17 1018.5 1014.3 +17.0 +21.1
07 12.06 В 6-9
{9}
н/о н/о +17.8 +5.6 45 +17 +17 1018.3 1014.1
08 12.06 В 6-8
{9}
н/о н/о +18.1 +6.0 45 +18 +18 1018.3 1014.1
09 12.06 В 3-5
{7}
55 км 9/0
[Ac As]
+18.6 +6.6 45 +19 +22 1018.6 1014.4
10 12.06 ЮВ 1-2
{5}
н/о н/о +19.6 +8.2 48 +22 +22 комфорт 1018.4 1014.2
11 12.06 СЗ 3-5
{5}
н/о н/о +20.4 +7.1 42 +22 +22 комфорт 1017.6 1013.4
12 12.06 СЗ 3-5
{9}
50 км 9/1 1000 м
[Sc Ac As]
+20.9 +6.2 38 +22 +26 комфорт 1017.1 1012.9
13 12.06 СЗ 5-8
{8}
н/о н/о +21.2 +7.5 41 +22 +22 комфорт 1016.2 1012.0
14 12.06 СЗ 4-7
{9}
н/о н/о +21.3 +8.1 43 +22 +22 комфорт 1015.8 1011.6
15 12.06 СЗ 3-5
{7}
60 км 9/4 1000 м
[Cu Sc Ac As]
+20.0 +7.2 43 +21 +23 комфорт 1015.3 1011.1
16 12.06 СЗ 4-6
{7}
н/о н/о +19.9 +8.1 46 +21 +21 комфорт 1014.8 1010.6
17 12.06 СЗ 2-3
{6}
н/о н/о +20.3 +8.3 46 +22 +22 комфорт 1014.2 1010.0
18 12.06 СЗ 1-2
{9}
н/о н/о +19.3 +7.8 47 +21 +21 комфорт 1013.6 1009.4 +17.5 +22.3
19 12.06 В 2-3
{3}
н/о н/о +19.0 +8.7 51 +20 +20 1012.7 1008.5
20 12.06 В 5-7
{7}
н/о н/о +18.0 +7.6 51 +18 +18 1012.2 1008.0
21 12.06 В 2-5
{7}
30 км 6/0 2000 м
[Ac und Ci fib]
+17.3 +6.7 50 +18 +18 1012.1 1007.9
22 12.06 СВ 3-5
{6}
н/о н/о +16.8 +6.9 52 +17 +17 1011.2 1007.0
23 12.06 В 4-6
{6}
н/о н/о +15.5 +8.1 61 +15 +15 1010.5 1006.3
00 13.06 Ю 1-1
{7}
н/о н/о +15.4 +8.2 62 +16 +16 1009.7 1005.5
01 13.06 С 2-2
{2}
н/о н/о +14.8 +10.0 73 +15 +15 1008.2 1004.0
02 13.06 В 1-2
{3}
н/о н/о +14.1 +10.2 77 +14 +14 1006.5 1002.3 0.4
03 13.06 ЮВ 1-1
{3}
н/о н/о +13.6 +10.7 83 +14 +14 1005.9 1001.6 0.4
04 13.06 ЮВ 1-2
{3}
н/о н/о +12.9 +11.2 89 +13 +13 1005.5 1001.2 1
05 13.06 ЮВ 2-3
{4}
н/о н/о +12.5 +10.8 89 +12 +12 1005.4 1001.1 0.5
06 13.06 ЮВ 3
{5}
7000 м ливневой дождь 10/10 200 м
[Cb cap]
+12.4 +11.0 91 +11 +11 1005.5 1001.2 +12.4 +19.5 4
07 13.06 Ю 2-3
{4}
н/о н/о +12.7 +11.3 91 +12 +12 1005.8 1001.5 3
08 13.06 В 1-3
{4}
н/о н/о +14.0 +12.2 89 +14 +14 1005.5 1001.3 0.1
09 13.06 С 1-3
{3}
27 км в посл. час ливневой дождь 9/9 200 м
[Cu Sc]
+14.8 +11.7 82 +15 +17 1005.4 1001.2 0.3
10 13.06 СЗ 1-1
{2}
н/о н/о +14.8 +12.3 85 +15 +15 1005.5 1001.3
11 13.06 В 1-2
{2}
н/о н/о +15.0 +12.3 84 +16 +16 1005.9 1001.7 0.1
12 13.06 СЗ 1-2
{4}
28 км в посл. час ливневой дождь 10/10 200 м
[Cu Sc]
+14.6 +12.5 87 +15 +15 1006.5 1002.3
13 13.06 ЮВ 3-4
{5}
н/о н/о +15.3 +12.3 82 +15 +15 1007.2 1003.0 0.1
14 13.06 Ю 5-8
{8}
н/о н/о +14.4 +10.9 79 +13 +13 1008.0 1003.8
15 13.06 ЮВ 3-6
{10}
40 км 9/9 300 м
[Cu Sc]
+14.9 +10.1 73 +14 +15 1008.3 1004.1
16 13.06 ЮВ 4-7
{7}
н/о н/о +16.6 +10.4 67 +16 +16 1008.4 1004.2
17 13.06 ЮВ 4-7
{8}
н/о н/о +17.3 +10.2 63 +17 +17 1008.5 1004.3
18 13.06 ЮВ 4-7
{10}
50 км 6/5 600 м
[Cu Sc Ac trans]
+17.2 +9.1 59 +17 +17 1008.8 1004.6 +12.2 +17.3
19 13.06 ЮВ 2-3
{5}
н/о н/о +16.4 +9.5 64 +17 +17 1009.2 1005.0
20 13.06 ЮВ 3-4
{4}
н/о н/о +16.2 +8.4 60 +16 +16 1009.6 1005.4
21 13.06 СЗ 2-4
{4}
50 км 8/5 600 м
[Cu Sc Ac trans]
+15.5 +9.7 68 +15 +15 1010.6 1006.4
22 13.06 ЮВ 2-3
{4}
н/о н/о +14.8 +9.4 70 +15 +15 1011.9 1007.6
23 13.06 Ю 1-2
{4}
н/о н/о +13.9 +9.5 75 +14 +14 1012.0 1007.7
00 14.06 Ю 1-2
{5}
н/о н/о +13.7 +9.9 78 +14 +14 1012.2 1007.9
01 14.06 Ю 2-3
{4}
н/о н/о +13.6 +8.2 70 +13 +13 1012.3 1008.0
02 14.06 СЗ 1-1
{3}
н/о н/о +13.4 +10.2 81 +14 +14 1012.7 1008.4
03 14.06 ЮВ 2-3
{3}
н/о н/о +13.1 +8.5 74 +12 +12 1013.0 1008.7
04 14.06 ЮВ 3-4
{5}
н/о н/о +14.4 +6.9 61 +14 +14 1013.1 1008.8
05 14.06 ЮВ 5-8
{8}
н/о н/о +16.5 +5.8 49 +16 +16 1013.1 1008.9
06 14.06 ЮВ 5-7
{8}
50 км 8/1 1000 м
[Sc Ac As Ci fib]
+17.8 +6.0 46 +17 +18 1013.3 1009.1 +13.1 +17.8
07 14.06 ЮВ 5-7
{9}
н/о н/о +16.6 +6.9 53 +16 +16 1013.9 1009.7
08 14.06 В 6-9
{9}
н/о н/о +16.8 +6.9 52 +16 +16 1013.4 1009.2
09 14.06 В 6-8
{11}
50 км 6/3 1000 м
[Cu hum Ac trans Ci fib]
+20.8 +8.1 44 +22 +22 комфорт 1013.7 1009.5
10 14.06 ЮВ 5-9
{10}
н/о н/о +19.3 +7.2 45 +20 +20 1014.3 1010.1
11 14.06 ЮВ 3-5
{8}
н/о н/о +19.1 +7.2 46 +20 +20 1014.7 1010.5
12 14.06 Ю 3-4
{11}
60 км 9/9 1000 м
[Cu Sc]
+19.4 +7.6 46 +20 +22 1015.0 1010.8
13 14.06 ЮВ 3-5
{7}
н/о н/о +17.8 +11.6 67 +18 +18 1015.5 1011.3
14 14.06 С 2-3
{4}
н/о н/о +17.5 +11.2 67 +18 +18 1015.7 1011.5
15 14.06 Ю 2-5
{8}
15 км слаб. ливневой дождь 10/8 300 м
[Cb cap Ac As]
+15.6 +12.4 81 +16 +16 1016.5 1012.2 0.9
16 14.06 ЮЗ 2-3
{4}
н/о н/о +16.6 +10.9 69 +17 +17 1016.4 1012.1 0.1
17 14.06 СЗ 2-3
{3}
н/о н/о +16.1 +10.4 69 +16 +16 1016.4 1012.1
18 14.06 С 2-3
{8}
25 км слаб. ливневой дождь 9/6 600 м
[Cu Sc Ac As]
+15.5 +10.4 72 +15 +16 1016.6 1012.3 +15.4 +21.1 1
19 14.06 СЗ 2-2
{4}
н/о н/о +14.9 +10.5 75 +15 +15 1017.0 1012.7
20 14.06 З 3-4
{4}
н/о н/о +14.8 +11.1 78 +14 +14 1017.2 1012.9
21 14.06 З 1-2
{4}
60 км {ливн. осадки} 8/8 1000 м
[Sc Ac cuf]
+14.0 +11.1 83 +14 +14 1017.7 1013.4
22 14.06 ЮВ 1-3
{3}
н/о н/о +13.5 +11.1 85 +14 +14 1018.4 1014.1
23 14.06 С 2-3
{3}
н/о н/о +13.8 +11.2 84 +13 +13 1018.9 1014.6
00 15.06 З 2-2
{4}
н/о н/о +12.8 +10.8 88 +12 +12 1018.8 1014.5
01 15.06 ЮВ 1-1
{2}
н/о н/о +11.6 +10.2 91 +11 +11 1018.8 1014.5
02 15.06 штиль 0-1
{1}
н/о н/о +10.8 +9.5 92 +10 +10 1018.6 1014.3
03 15.06 ЮВ 1-2
{2}
н/о н/о +10.6 +9.5 93 +10 +10 1018.6 1014.3
04 15.06 штиль 0-1
{2}
н/о н/о +10.3 +9.3 94 +9 +9 1018.6 1014.2
05 15.06 штиль 0-1
{1}
н/о н/о +11.7 +10.6 93 +11 +11 1018.3 1013.9
06 15.06 З 2
{2}
30 км 1/0
[Ci fib]
+13.8 +11.3 85 +13 +17 1018.0 1013.7 +10.2 +15.5
07 15.06 СЗ 3-3
{3}
н/о н/о +16.0 +11.3 74 +16 +16 1017.7 1013.4
08 15.06 СЗ 1-3
{4}
н/о н/о +18.7 +11.6 63 +20 +20 1017.5 1013.3
09 15.06 З 2-3
{3}
30 км 3/1 600 м
[Cu hum Ac lent Ci fib]
+20.5 +10.9 54 +23 +31 комфорт 1017.1 1012.9
10 15.06 З 1-3
{4}
н/о н/о +21.5 +6.9 39 +22 +22 комфорт 1016.6 1012.4
11 15.06 С 2-4
{4}
н/о н/о +23.1 +7.4 36 +24 +24 комфорт 1015.8 1011.6
12 15.06 СЗ 2-3
{5}
40 км 4/1 600 м
[Cu med, cong Cs]
+23.8 +8.8 38 +24 +36 комфорт 1015.3 1011.2
13 15.06 СЗ 4-5
{6}
н/о н/о +23.9 +7.4 35 +24 +24 комфорт 1014.7 1010.6
14 15.06 СЗ 4-6
{6}
н/о н/о +24.2 +9.2 39 +25 +25 комфорт 1014.1 1010.0
15 15.06 СЗ 5-6
{8}
50 км 6/1 600 м
[Cu hum Cs]
+23.5 +10.5 44 +25 +29 комфорт 1013.8 1009.7
16 15.06 СЗ 5-7
{7}
н/о н/о +22.8 +10.2 45 +25 +25 комфорт 1013.0 1008.9
17 15.06 СЗ 5-7
{7}
н/о н/о +22.0 +10.8 49 +24 +24 комфорт 1012.4 1008.2
18 15.06 СЗ 4-6
{8}
40 км 10/1 1000 м
[Cu hum Ac und Ci sp]
+21.2 +10.4 50 +23 +23 комфорт 1011.9 1007.7 +13.8 +25.3
19 15.06 СЗ 3-5
{7}
н/о н/о +19.4 +11.5 60 +21 +21 комфорт 1011.8 1007.6
20 15.06 ЮВ 5-7
{11}
н/о н/о +17.9 +12.7 72 +18 +18 1013.6 1009.5 0.7
21 15.06 Ю 1-1
{7}
20 км слаб. дождь 10/0 1500 м
[As op]
+15.8 +13.6 87 +16 +16 1013.2 1009.0 1

 

Местоположение метеостанции Берген (Норвегия): широта 60.38 долгота 5.33 высота над уровнем моря 12 м.

В архиве по умолчанию представлена погода в Бергене за последнюю неделю. Архивные данные за месяц целиком и за предыдущие месяцы, начиная с января 2011 года, Вы можете получить, выбрав интересующий диапазон дат из раскрывающегося списка и нажав кнопку "Ввод!".


*Определитесь, кто Вы:
робот инопланетянин человек

Внимание! Время в таблицах - всемирное. Для получения местного времени необходимо прибавить поправку, которая равна 1 ч.

Смотрите также архив погоды в соседних городах и на ближайших метеорологических станциях:

Погода в Фоссмарке (Норвегия) (26 км)
Погода в Квамскогене (Норвегия) (35 км)
Погода в Эустеволле (Норвегия) (41 км)
Погода на Квамсое (Норвегия) (52 км)
Погода в Эванжере (Норвегия) (52 км)
Погода на Маяке Slatteroy (Норвегия) (54 км)
Погода в Федье (Норвегия) (56 км)
Погода в Булкене (Норвегия) (57 км)
Погода в Модалене (Норвегия) (64 км)
Погода в Воссевангене (Норвегия) (66 км)

Пояснения к столбцам:

Ветер - указаны скорость ветра в м/с - средняя за 10 мин, порывы в срок и между сроками (в фигурных скобках) и направление, откуда дует ветер: С - северный, СВ - северо-восточный, В - восточный, ЮВ - юго-восточный, Ю - южный, ЮЗ - юго-западный, З - западный, СЗ - северо-западный.
Видимость - горизонтальная дальность видимости в метрах или километрах. При видимости от 1 до 10 км при отсутствии осадков обычно наблюдается дымка, при ухудшении видимости до 1 км и менее - туман. В сухую погоду видимость может ухудшаться дымом, пылью или мглою.
Явления - указаны атмосферные явления, наблюдавшиеся в срок или в последний час перед сроком; фигурными скобками обозначены явления, наблюдавшиеся между сроками (за 1-3 часа до срока); квадратными скобками обозначены град или гололедные отложения с указанием их диаметра в мм.
Облачность - указаны через наклонную черту общая и нижняя облачность в баллах и высота нижней границы облаков в метрах; квадратными скобками обозначены формы облаков: Ci - перистые, Cs - перисто-слоистые, Cc - перисто-кучевые, Ac - высококучевые, As - высокослоистые, Sc - слоисто-кучевые, Ns - слоисто-дождевые, Cu - кучевые, Cb - кучево-дождевые. Подробнее классификацию облаков см. в Атласе облаков (PDF).
T - Температура воздуха - температура, измеренная на высоте 2 м над землей.
Td - Температура точки росы - температура, при понижении до которой содержащийся в воздухе водяной пар достигнет насыщения.
f - Относительная влажность воздуха - влажноcть воздуха, измеренная на высоте 2 м над землей.
Te - Эффективная температура - температура, которую ощущает одетый по сезону человек в тени. Характеристика душности погоды. При расчете учитывается влияние влажности воздуха и скорости ветра на теплоощущения человека.
Tes - Эффективная температура на солнце - температура, которую ощущает человек, с поправкой на солнечный нагрев. Характеристика знойности погоды. Зависит от высоты солнца над горизонтом, облачности и скорости ветра. Ночью, в пасмурную погоду, а также при ветре 12 м/с и более поправка равна нулю.
P - Атмосферное давление - приведенное к уровню моря атмосферное давление.
Po - Атмосферное давление - измеренное на уровне метеостанции атмосферное давление.
Tmin - Минимальная температура - минимум температуры воздуха на высоте 2 м над землей.
Tmax - Максимальная температура - максимум температуры воздуха на высоте 2 м над землей.
R - Количество осадков - Количество выпавших осадков за период времени, мм. При наведении курсора мыши на число - период времени, за который выпало указанное количество осадков.
R24 - Количество осадков - Количество выпавших осадков за 24 часа, мм.
S - Снежный покров - Высота снежного покрова, см. При наведении курсора мыши на число - состояние снежного покрова и степень покрытия местности в баллах.